This demonstration page uses our WeatherBlox Daily Observations layout. Learn more.

Left ArrowRight Arrow

Hourly Observations for March 29, 2019

Temp ( °F °C ) Dew Point ( °F °C ) Humidity (%) Winds ( mph kmh ) Pressure ( in mb ) Visibility ( mi km ) Precip ( " mm )
12:51 am 00:51 Clear 55 12.8 21 -6.1 26 26 NNW 8 13 29.92 1013 10 16 N/A
1:51 am 01:51 Clear 52 11.1 22 -5.6 31 31 NW 10 17 29.93 1013 10 16 N/A
2:51 am 02:51 Clear 54 12.2 21 -6.1 28 28 N N/A 29.92 1013 10 16 N/A
3:51 am 03:51 Clear 53 11.7 21 -6.1 28 28 NW 8 13 29.93 1013 10 16 N/A
4:51 am 04:51 Clear 49 9.4 22 -5.6 35 35 NW 8 13 29.94 1014 10 16 N/A
5:51 am 05:51 Clear 50 10 23 -5 35 35 N 6 9 29.95 1014 10 16 N/A
6:51 am 06:51 Sunny 50 10 24 -4.4 36 36 ESE 5 7 29.98 1015 10 16 N/A
7:51 am 07:51 Sunny 57 13.9 24 -4.4 28 28 SE 5 7 29.98 1015 10 16 N/A
8:51 am 08:51 Sunny 62 16.7 25 -3.9 24 24 N N/A 29.98 1015 10 16 N/A
9:51 am 09:51 Sunny 66 18.9 26 -3.3 22 22 N N/A 29.98 1015 10 16 N/A
10:51 am 10:51 Sunny 72 22.2 21 -6.1 15 15 WNW 10 17 29.96 1015 10 16 N/A
11:51 am 11:51 Sunny 74 23.3 18 -7.8 12 12 W 14 22 29.93 1014 10 16 N/A
12:51 pm 12:51 Sunny 77 25 17 -8.3 10 10 WNW 12 19 29.91 1013 10 16 N/A
1:51 pm 13:51 Sunny 80 26.7 17 -8.3 9 9 WNW 17 28 29.87 1012 10 16 N/A
2:51 pm 14:51 Sunny 80 26.7 17 -8.3 9 9 NW 20 31 29.84 1010 10 16 N/A
3:51 pm 15:51 Sunny 79 26.1 17 -8.3 10 10 WNW 20 31 29.83 1010 10 16 N/A
4:51 pm 16:51 Sunny 77 25 18 -7.8 11 11 NW 24 39 29.83 1010 10 16 N/A
5:51 pm 17:51 Sunny 74 23.3 19 -7.2 12 12 NW 21 33 29.85 1011 10 16 N/A
6:51 pm 18:51 Clear 68 20 22 -5.6 17 17 WNW 16 26 29.89 1012 10 16 N/A
7:51 pm 19:51 Clear 65 18.3 24 -4.4 21 21 W 14 22 29.90 1013 10 16 N/A
8:51 pm 20:51 Clear 63 17.2 24 -4.4 23 23 NW 9 15 29.92 1013 10 16 N/A
9:51 pm 21:51 Clear 61 16.1 23 -5 23 23 WNW 12 19 29.92 1013 10 16 N/A
10:51 pm 22:51 Clear 54 12.2 22 -5.6 29 29 N 5 7 29.93 1014 10 16 N/A
11:51 pm 23:51 Clear 53 11.7 22 -5.6 30 30 NNW 8 13 29.92 1013 10 16 N/A

Powered by AerisWeather